DAL28 KJFK-LFMN

Flight info

Callsign DAL28
Flight time N/A
Altitude 33000
Route MERIT DCT HFD DCT PUT DCT TUSKY DCT TUDEP/M082F350 DCT 52N050W 53N040W 54N030W 54N020W DCT MALOT DCT GISTI DCT ARKIL/N0470F350 DCT DOLUR/N0472F370 DCT TERKU DCT KORER DCT LEMKA DCT BEBIX DCT LERGA DCT LIQID DCT LATAM DCT TUNUR DCT NISAR
Aircraft B764/H-SDE3FGHIM3RWXY/LB1

Departure

Time 2026-05-07 11:20
Airport John F. Kennedy International Airport (KJFK)

Arrival

Time N/A
Airport Nice-Côte d'Azur Airport (LFMN)
Time Latitude Longitude Altitude Speed Heading
2026-05-07 10:19 40.64259 -73.77950 26 ft 0 kts 11°
2026-05-07 10:41 40.64256 -73.77951 30 ft 2 kts 11°
2026-05-07 10:41 40.64240 -73.77954 30 ft 3 kts 12°
2026-05-07 10:41 40.64221 -73.77961 32 ft 3 kts 29°
2026-05-07 10:41 40.64206 -73.77974 32 ft 3 kts 51°
2026-05-07 10:42 40.64196 -73.77994 32 ft 3 kts 71°
2026-05-07 10:42 40.64190 -73.78019 32 ft 2 kts 77°
2026-05-07 10:42 40.64188 -73.78031 32 ft 1 kts 77°
2026-05-07 10:42 40.64188 -73.78032 32 ft 0 kts 77°
2026-05-07 11:12 40.64161 -73.77963 31 ft 20 kts 134°
2026-05-07 11:12 40.64106 -73.77908 28 ft 9 kts 151°
2026-05-07 11:13 40.64024 -73.77884 29 ft 14 kts 173°
2026-05-07 11:13 40.63924 -73.77819 29 ft 19 kts 148°
2026-05-07 11:13 40.63799 -73.77708 27 ft 19 kts 145°
2026-05-07 11:13 40.63740 -73.77658 29 ft 6 kts 179°
2026-05-07 11:14 40.63682 -73.77687 28 ft 13 kts 202°
2026-05-07 11:14 40.63571 -73.77777 28 ft 26 kts 212°
2026-05-07 11:14 40.63421 -73.77895 27 ft 21 kts 211°
2026-05-07 11:14 40.63363 -73.77910 27 ft 3 kts 153°
2026-05-07 11:15 40.63316 -73.77823 28 ft 19 kts 123°
2026-05-07 11:15 40.63244 -73.77664 29 ft 25 kts 120°
2026-05-07 11:15 40.63143 -73.77439 27 ft 29 kts 122°
2026-05-07 11:15 40.63040 -73.77218 27 ft 27 kts 122°
2026-05-07 11:16 40.62963 -73.77095 27 ft 10 kts 164°
2026-05-07 11:16 40.62915 -73.77113 27 ft 6 kts 207°
2026-05-07 11:16 40.62901 -73.77124 27 ft 0 kts 209°
2026-05-07 11:17 40.62891 -73.77131 27 ft 5 kts 210°
2026-05-07 11:17 40.62859 -73.77156 28 ft 8 kts 210°
2026-05-07 11:17 40.62832 -73.77191 28 ft 8 kts 251°
2026-05-07 11:18 40.62836 -73.77244 28 ft 14 kts 283°
2026-05-07 11:18 40.62844 -73.77267 28 ft 0 kts 296°
2026-05-07 11:19 40.62874 -73.77349 29 ft 37 kts 298°
2026-05-07 11:19 40.63149 -73.77950 29 ft 115 kts 301°
2026-05-07 11:19 40.63688 -73.79134 42 ft 185 kts 300°
2026-05-07 11:20 40.64462 -73.80648 772 ft 205 kts 311°
2026-05-07 11:20 40.65712 -73.81717 1872 ft 229 kts 334°
2026-05-07 11:20 40.67317 -73.81586 3264 ft 234 kts 18°
2026-05-07 11:20 40.68723 -73.80413 4581 ft 255 kts 41°
2026-05-07 11:21 40.69844 -73.78550 5596 ft 262 kts 54°
2026-05-07 11:21 40.70824 -73.76411 6426 ft 280 kts 62°
2026-05-07 11:21 40.71778 -73.74181 7708 ft 280 kts 55°
2026-05-07 11:21 40.72999 -73.72114 8912 ft 299 kts 49°
2026-05-07 11:22 40.74555 -73.69992 9167 ft 335 kts 40°
2026-05-07 11:22 40.76310 -73.67980 9669 ft 340 kts 38°
2026-05-07 11:22 40.78128 -73.65991 9814 ft 338 kts 37°
2026-05-07 11:22 40.80012 -73.64111 9863 ft 336 kts 31°
2026-05-07 11:23 40.81977 -73.62459 9873 ft 335 kts 29°
2026-05-07 11:23 40.83944 -73.60808 9893 ft 336 kts 30°
2026-05-07 11:23 40.85911 -73.59113 9900 ft 338 kts 30°
2026-05-07 11:23 40.87864 -73.57425 10282 ft 337 kts 30°
2026-05-07 11:24 40.89835 -73.55731 11145 ft 339 kts 30°
2026-05-07 11:24 40.91828 -73.54020 12327 ft 345 kts 30°
2026-05-07 11:24 40.93859 -73.52270 13779 ft 352 kts 30°
2026-05-07 11:24 40.95933 -73.50478 15090 ft 359 kts 29°
2026-05-07 11:25 40.97123 -73.49449 15864 ft 362 kts 28°
2026-05-07 11:25 40.99243 -73.47621 17224 ft 363 kts 27°
2026-05-07 11:25 41.01370 -73.45788 17749 ft 370 kts 27°
2026-05-07 11:25 41.03554 -73.43907 18177 ft 377 kts 27°
2026-05-07 11:26 41.05733 -73.42015 18336 ft 380 kts 27°
2026-05-07 11:26 41.07945 -73.40094 18419 ft 380 kts 27°
2026-05-07 11:26 41.10149 -73.38185 18456 ft 379 kts 27°
2026-05-07 11:26 41.12357 -73.36275 18483 ft 379 kts 27°
2026-05-07 11:27 41.14561 -73.34359 18492 ft 378 kts 27°
2026-05-07 11:27 41.16764 -73.32445 18498 ft 379 kts 27°
2026-05-07 11:27 41.18983 -73.30517 18502 ft 380 kts 27°
2026-05-07 11:27 41.21197 -73.28590 18503 ft 380 kts 27°
2026-05-07 11:28 41.23383 -73.26684 18504 ft 379 kts 27°
2026-05-07 11:28 41.25590 -73.24762 18506 ft 379 kts 27°
2026-05-07 11:28 41.27808 -73.22827 18504 ft 380 kts 27°
2026-05-07 11:28 41.30022 -73.20893 18495 ft 380 kts 27°
2026-05-07 11:29 41.32236 -73.18958 18497 ft 381 kts 27°
2026-05-07 11:29 41.34454 -73.17017 18505 ft 381 kts 27°
2026-05-07 11:29 41.36514 -73.14756 18508 ft 388 kts 43°
2026-05-07 11:29 41.38273 -73.12071 18528 ft 391 kts 48°
2026-05-07 11:30 41.39946 -73.09203 18510 ft 392 kts 50°
2026-05-07 11:30 41.41548 -73.06241 18512 ft 393 kts 56°
2026-05-07 11:30 41.42925 -73.03083 18519 ft 393 kts 59°
2026-05-07 11:30 41.44300 -72.99928 18510 ft 393 kts 58°
2026-05-07 11:31 41.45703 -72.96772 18501 ft 393 kts 58°
2026-05-07 11:31 41.47078 -72.93659 18498 ft 393 kts 58°
2026-05-07 11:31 41.48464 -72.90504 18498 ft 394 kts 58°
2026-05-07 11:31 41.49854 -72.87342 18502 ft 394 kts 58°
2026-05-07 11:32 41.52614 -72.81059 18505 ft 394 kts 58°
2026-05-07 11:32 41.54001 -72.77897 18502 ft 394 kts 58°
2026-05-07 11:32 41.55387 -72.74733 18502 ft 395 kts 58°
2026-05-07 11:33 41.56774 -72.71564 18498 ft 395 kts 58°
2026-05-07 11:33 41.58156 -72.68399 18494 ft 394 kts 59°
2026-05-07 11:33 41.59542 -72.65226 18491 ft 396 kts 58°
2026-05-07 11:33 41.60936 -72.62034 18822 ft 397 kts 58°
2026-05-07 11:34 41.62345 -72.58845 19487 ft 400 kts 53°
2026-05-07 11:34 41.64232 -72.56145 20394 ft 396 kts 30°
2026-05-07 11:34 41.66623 -72.54402 21507 ft 389 kts 12°
2026-05-07 11:34 41.69162 -72.53291 22594 ft 387 kts
2026-05-07 11:35 41.71809 -72.52586 23700 ft 391 kts 360°
2026-05-07 11:35 41.74499 -72.51841 24684 ft 398 kts
2026-05-07 11:35 41.77233 -72.51071 25647 ft 404 kts 360°
2026-05-07 11:35 41.80014 -72.50294 26613 ft 410 kts 360°
2026-05-07 11:36 41.82825 -72.49506 27576 ft 416 kts 359°
2026-05-07 11:36 41.85682 -72.48705 28515 ft 423 kts 359°
2026-05-07 11:36 41.88592 -72.47888 29449 ft 430 kts 359°
2026-05-07 11:36 41.91550 -72.47056 30301 ft 436 kts 359°
2026-05-07 11:37 41.94529 -72.46213 31189 ft 439 kts 359°
2026-05-07 11:37 41.97492 -72.45380 32024 ft 441 kts 358°
2026-05-07 11:37 42.00480 -72.44532 32443 ft 436 kts 358°
2026-05-07 11:37 42.03469 -72.43703 32676 ft 443 kts 358°
2026-05-07 11:38 42.06525 -72.42841 32796 ft 453 kts 359°
2026-05-07 11:38 42.12715 -72.41073 32842 ft 453 kts 358°
2026-05-07 11:39 42.18852 -72.39341 32846 ft 448 kts 358°
2026-05-07 11:39 42.24989 -72.37598 32860 ft 451 kts 358°
2026-05-07 11:40 42.31106 -72.35856 32861 ft 451 kts 358°
2026-05-07 11:40 42.37272 -72.34104 32911 ft 464 kts 358°
2026-05-07 11:40 42.40533 -72.33187 32929 ft 491 kts 359°
2026-05-07 11:41 42.43967 -72.32183 32921 ft 517 kts 359°
2026-05-07 11:41 42.47565 -72.31149 32932 ft 538 kts 360°
2026-05-07 11:41 42.51254 -72.30084 32895 ft 543 kts
2026-05-07 11:42 42.58601 -72.27979 32866 ft 535 kts 360°
2026-05-07 11:42 42.65874 -72.25893 32866 ft 534 kts 359°
2026-05-07 11:43 42.73115 -72.23800 32868 ft 536 kts 360°
2026-05-07 11:43 42.80432 -72.21685 32896 ft 537 kts 360°
2026-05-07 11:44 42.87746 -72.19565 32891 ft 537 kts 360°
2026-05-07 11:44 42.95064 -72.17436 32907 ft 538 kts 360°
2026-05-07 11:45 43.02403 -72.15298 32893 ft 538 kts
2026-05-07 11:45 43.09679 -72.13173 32898 ft 538 kts
2026-05-07 11:46 43.17025 -72.11023 32893 ft 539 kts
2026-05-07 11:46 43.24364 -72.08867 32885 ft 539 kts
2026-05-07 11:47 43.31692 -72.06711 32895 ft 539 kts
2026-05-07 11:47 43.38986 -72.04561 32872 ft 538 kts
2026-05-07 11:48 43.46317 -72.02393 32875 ft 538 kts
2026-05-07 11:48 43.53610 -71.99771 32862 ft 558 kts 15°
2026-05-07 11:48 43.57012 -71.97027 33012 ft 579 kts 30°
2026-05-07 11:49 43.60021 -71.93150 32957 ft 604 kts 45°
2026-05-07 11:49 43.62445 -71.88332 32920 ft 614 kts 59°
2026-05-07 11:49 43.64102 -71.82906 32899 ft 615 kts 74°
2026-05-07 11:50 43.65724 -71.71362 32870 ft 611 kts 84°
2026-05-07 11:50 43.66930 -71.59808 32836 ft 611 kts 84°
2026-05-07 11:51 43.68097 -71.48185 32833 ft 611 kts 84°
2026-05-07 11:51 43.69265 -71.36557 32838 ft 610 kts 84°
2026-05-07 11:52 43.70438 -71.24995 32843 ft 610 kts 84°
2026-05-07 11:52 43.71630 -71.13360 32839 ft 611 kts 84°
2026-05-07 11:53 43.72833 -71.01731 32823 ft 611 kts 84°
2026-05-07 11:53 43.74050 -70.90089 32822 ft 611 kts 84°
2026-05-07 11:54 43.75281 -70.78444 32831 ft 611 kts 84°
2026-05-07 11:54 43.76524 -70.66797 32835 ft 613 kts 84°
2026-05-07 11:55 43.77771 -70.55233 32829 ft 613 kts 84°